FENGYUN 1C DEB, 30550

Orbit data source: Space-Track

FENGYUN 1C DEB, 30550 is space debris in SSO originally from a launch on Mon, 10 May 1999 UTC launched from the Taiyaun Space Center, China (TSC). Fengyun 1C debris stems from the Chinese weather satellite Fengyun-1C, which was intentionally destroyed by a Chinese anti-satellite missile in 2007. This event dramatically increased the amount of space debris, with thousands of trackable fragments posing hazards to satellites and human spaceflight. The Fengyun 1C debris cloud has become a focal point in discussions about space sustainability and the need for international regulations to prevent the creation of new debris.

Loading next visibility...
Identifier
30550, 1999-025AKQ
Orbit
SSO
Country
Flag of CNCN / PRC
Related business
Manufacturer
Unknown
Mission
Spacecraft
Bus & Motor
Unknown
Mass
Unknown
Launch date (UTC)
1999-05-10 (27 years ago)
Launch vehicle
Unknown
Launch site
Taiyaun Space Center, China (TSC)
Object type
Payload
Rocket body
Debris
Shape & HBR
Unknown shape, 0.1 m
Radar Cross Section
Medium (>0.1 m² and <1 m²)

Expand to show TLE details & history
Last TLE update: 2 days ago

TLE from 2 days ago
0 FENGYUN 1C DEB
1 30550U 99025AKQ 26206.22055421  .00003022  00000-0  17964-2 0  9991
2 30550  99.0486 105.4177 0132591  33.5505 117.0308 14.03909311985438
Epoch: 2026-07-25T05:17Z
TLE epoch observation values (Epoch: 2026-07-25T05:17:35.883Z)
Latitude
27.7374°
Longitude
-92.13917°
Altitude
928.411 km
Speed
7.367 km/s
True Right ascension
19h 20m 47s
True Declination
27° 35' 57"
Sunlit
Object was in full shadow at epoch
Visualization orbit readout
Latitude
Unknown
Longitude
Unknown
Altitude
Unknown
Speed
Unknown
Apparent Right ascension
Unknown
Apparent Declination
Unknown
Sunlit
N/A
Visualization observer readout
Local Sidereal Time
00:27:52
Azimuth
Unknown
Elevation
Unknown
Doppler factor
Unknown
Orbital elements
Apogee altitude
973.688 km
Perigee altitude
781.282 km
Semi-major axis
7,255.622 km
Eccentricity
0.01326
Inclination
99.0486°
RAAN
105.4177°
Arg. of periapsis
33.5505°
True anomaly
118.37396°
Mean anomaly
117.0308°
Eccentric anomaly
117.7034°
Mean motion
3.51181 °/min
Orbital period
102.51 mins
BSTAR
0.0017964
Loading maneuver chart data...
Computing Atmospheric mass density...

Documentation

Showing up to 5 results
|